Location: *
(18.5200°S, 46.4500°E)
Time: 15:10:55
(UTC+00:00)

ASTRO E2 - Pass Details

Date: 19 July 2019
Orbit: 511 x 517 km, 31.4° (Epoch: 22 August)

Event Time Altitude Azimuth Distance (km) Brightness Sun altitude
Rises 15:53:55 0° 320° (NW) 2,605 7.2 -18.5°
Reaches altitude 10° 15:56:21 10° 331° (NNW) 1,725 6.0 -19.1°
Maximum altitude 15:59:49 29° 32° (NNE) 966 3.9 -19.8°
Enters shadow 16:00:00 29° 38° (NE) 969 3.8 -19.9°
